sat.trackr.live / text

‹ back to catalog

ACCENTURE-1

NORAD 66767 · 2025-276DF

PAYLOAD ACTIVE UNKNOWN

§ Identity

Operator
Country
UK
Launch date
2025-11-28
Launch site
AFWTR
Launch vehicle
Mass (kg)
RCS (m²)

External: N2YO · Heavens-Above · Gunter

§ Orbital elements

Epoch: 2026-05-25T03:44:57.103008Z

Period
94.75 min
Inclination
97.4166°
Eccentricity
0.0001105
Mean motion
15.19780591 rev/d
Perigee alt
505.7 km
Apogee alt
507.3 km
Semi-major
6,884.6 km
B*
1.5842e-4
RAAN
219.1544°
Arg perigee
104.4677°
Mean anomaly
255.6681°
Rev number
2,693

§ Raw data

ACCENTURE-11 66767U 25276DF  26145.15621647  .00003322  00000+0  15842-3 0  99962 66767  97.4166 219.1544 0001105 104.4677 255.6681 15.19780591 26938

JSON: /api/v1/satellites/66767 · /tle

For live sub-satellite position, see the globe view (requires WebGL).

§ Visibility from observer

Set your observer location to see the next 7 days of passes ≥ 10°. The values pass through the URL so the page stays shareable.

No JS? Fill the form by hand. The geolocation button needs JavaScript.